Weather History for Pittsfield, MA

Change the Weather History Date:

Thursday, January 17, 2013

  Actual Average Record
Temperature  
Mean Temperature 27 °F 20 °F  
Max Temperature 34 °F 29 °F 47 °F (1932)
Min Temperature 19 °F 11 °F -10 °F (1965)
Degree Days  
Heating Degree Days 38 45  
Month to date heating degree days 646 758  
Since 1 July heating degree days 3182 3596  
Cooling Degree Days 0 0  
Month to date cooling degree days 0 0  
Year to date cooling degree days 0 0  
Moisture  
Dew Point 20 °F    
Average Humidity 79    
Maximum Humidity 100    
Minimum Humidity 57    
Precipitation  
Precipitation 0.00 in 0.09 in 0.67 in (1937)
Month to date precipitation 0.59 1.77  
Year to date precipitation 0.59 1.77  
Sea Level Pressure  
Sea Level Pressure 29.97 in    
Wind  
Wind Speed 10 mph (West)    
Max Wind Speed 22 mph    
Max Gust Speed 30 mph    
Visibility 10 miles    
Events      
T = Trace of Precipitation, MM = Missing Value Source: NWS Daily Summary

Daily Weather History Graph

Daily Weather History Graph

Search for Another Location

Airport:

Trip Planner

Search our weather history database for the weather conditions in past years. The results will help you decide how hot, cold, wet, or windy it might be!

Date:

Astronomy

Jan. 17, 2013 Rise Set
Actual Time 7:18 AM EST 4:48 PM EST
Civil Twilight 6:47 AM EST 5:19 PM EST
Nautical Twilight 6:13 AM EST 5:53 PM EST
Astronomical Twilight 5:39 AM EST 6:27 PM EST
Moon 10:15 AM EST (1/17) 11:46 PM EST (1/17)
Length of Visible Light 10h 31m
Length of Day
9h 29m
Waxing Crescent, 37% of the Moon is Illuminated
Jan 17
Waxing Crescent
Jan 18
First Quarter
Jan 26
Full
Feb 3
Last Quarter
Feb 10
New

Hourly Weather History & Observations

Time (EST) Temp. Windchill Dew Point Humidity Pressure Visibility Wind Dir Wind Speed Gust Speed Precip Events Conditions
12:54 AM 28.9 °F 23.9 °F 27.0 °F 92% 29.85 in 10.0 mi SW 4.6 mph - N/A   Overcast
1:54 AM 28.0 °F 20.0 °F 27.0 °F 96% 29.86 in 10.0 mi SW 8.1 mph - N/A   Mostly Cloudy
2:06 AM 28.4 °F 23.3 °F 26.6 °F 93% 29.83 in 10.0 mi SW 4.6 mph - N/A   Scattered Clouds
2:54 AM 28.0 °F 20.0 °F 25.0 °F 88% 29.86 in 10.0 mi SW 8.1 mph - N/A   Clear
3:54 AM 30.0 °F 23.2 °F 24.1 °F 79% 29.85 in 10.0 mi WSW 6.9 mph - N/A   Partly Cloudy
4:54 AM 30.0 °F 25.2 °F 25.0 °F 82% 29.86 in 10.0 mi SW 4.6 mph - N/A   Overcast
5:54 AM 30.9 °F 21.2 °F 23.0 °F 72% 29.87 in 10.0 mi West 12.7 mph - N/A   Overcast
6:54 AM 30.9 °F 21.7 °F 24.1 °F 76% 29.91 in 10.0 mi West 11.5 mph - N/A   Overcast
7:54 AM 30.9 °F 21.2 °F 24.1 °F 76% 29.93 in 10.0 mi West 12.7 mph - N/A   Overcast
8:54 AM 32.0 °F 22.5 °F 25.0 °F 75% 29.95 in 10.0 mi West 12.7 mph - N/A   Overcast
9:05 AM 30.2 °F 19.8 °F 24.8 °F 80% 29.92 in 10.0 mi West 13.8 mph - N/A   Overcast
9:12 AM 30.2 °F 20.2 °F 24.8 °F 80% 29.92 in 10.0 mi West 12.7 mph - N/A   Mostly Cloudy
9:54 AM 32.0 °F 23.0 °F 25.0 °F 75% 29.96 in 10.0 mi West 11.5 mph - N/A   Clear
10:54 AM 33.1 °F 23.9 °F 26.1 °F 75% 29.98 in 10.0 mi WNW 12.7 mph 21.9 mph N/A   Partly Cloudy
11:54 AM 33.1 °F 21.9 °F 26.1 °F 75% 29.98 in 10.0 mi WNW 18.4 mph 26.5 mph N/A   Partly Cloudy
12:54 PM 34.0 °F 24.2 °F 25.0 °F 70% 29.98 in 10.0 mi NW 15.0 mph 24.2 mph N/A   Scattered Clouds
1:54 PM 32.0 °F 20.5 °F 23.0 °F 69% 30.00 in 10.0 mi NW 18.4 mph 26.5 mph N/A   Mostly Cloudy
2:54 PM 30.0 °F 20.0 °F 19.0 °F 64% 30.03 in 10.0 mi WNW 12.7 mph - N/A   Clear
3:54 PM 28.0 °F 16.5 °F 17.1 °F 63% 30.04 in 10.0 mi WNW 15.0 mph 20.7 mph N/A   Clear
4:54 PM 26.1 °F 14.0 °F 16.0 °F 66% 30.07 in 10.0 mi WNW 15.0 mph 23.0 mph N/A   Clear
5:54 PM 24.1 °F 15.2 °F 15.1 °F 69% 30.08 in 10.0 mi WNW 8.1 mph 16.1 mph N/A   Clear
6:54 PM 23.0 °F 15.8 °F 10.9 °F 60% 30.11 in 10.0 mi WNW 5.8 mph - N/A   Clear
7:54 PM 21.9 °F 14.5 °F 10.0 °F 60% 30.12 in 10.0 mi NW 5.8 mph - N/A   Clear
8:54 PM 21.0 °F 14.6 °F 8.1 °F 57% 30.10 in 10.0 mi Variable 4.6 mph - N/A   Mostly Cloudy
9:54 PM 19.9 °F 13.4 °F 8.1 °F 60% 30.07 in 10.0 mi WNW 4.6 mph - N/A   Partly Cloudy
10:54 PM 19.9 °F 14.9 °F 8.1 °F 60% 30.05 in 10.0 mi NW 3.5 mph - N/A   Overcast
11:54 PM 19.0 °F 10.0 °F 7.0 °F 59% 30.06 in 10.0 mi NW 6.9 mph - N/A   Overcast